Volver al catálogo

STARLINK-32839

ActivoComunicacionesVLEO
NORAD 63077·PAYLOAD·🇺🇸 United States

Lanzado Feb 23, 2025 desde Vandenberg Space Force Base

Loading…

Próximos Pases (próximas 24 horas)

TLE

ActualizadoSource: CelesTrak SupGP

Época: Sep 14, 2026, 21:23 UTC

1 63077C 25037A   26257.89145833  .00045296  00000+0  15764-2 0  2570
2 63077  70.0009 235.9637 0003495 268.4845 285.4631 15.29541179    18

Sigue STARLINK-32839 en tiempo real con AllMySat

Download on the App Store